When you browse on this site, cookies collect data to enhance your experience and personalize the content and advertising you see.
Visit our Privacy Policy to learn more. By continuing to use the site, you agree to this use of cookies and data.
  • en Suisse
  • Liste des pays
  • À 7 jours
  • Température de l'eau
  • Carte satellitaire
  • Carte météo
  • Widgets météo
  • user-avatar
    Se connecter

    Météo par heure à Plakho-Petrivka

    Ce jour, 20 Avril, Samedi

    Heure Température Précipitation Vent Pression Humidité
    00:00 +4°C° 0 mm 2 m/s 758 mmHg 54%
    01:00 +4°C° 0 mm 2 m/s 758 mmHg 54%
    02:00 +3°C° 0 mm 2 m/s 758 mmHg 55%
    03:00 +3°C° 0 mm 2 m/s 758 mmHg 55%
    04:00 +3°C° 0 mm 2 m/s 758 mmHg 57%
    05:00 +3°C° 0 mm 2 m/s 758 mmHg 58%
    06:00 +2°C° 0 mm 2 m/s 758 mmHg 59%
    07:00 +4°C° 0 mm 2 m/s 758 mmHg 53%
    08:00 +6°C° 0 mm 2 m/s 758 mmHg 48%
    09:00 +8°C° 0 mm 2 m/s 758 mmHg 42%
    10:00 +9°C° 0 mm 3 m/s 758 mmHg 39%
    11:00 +10°C° 0 mm 3 m/s 758 mmHg 35%
    12:00 +11°C° 0 mm 3 m/s 757 mmHg 32%
    13:00 +12°C° 0 mm 3 m/s 757 mmHg 31%
    14:00 +12°C° 0 mm 3 m/s 757 mmHg 30%
    15:00 +13°C° 0 mm 2 m/s 757 mmHg 30%
    16:00 +13°C° 0 mm 2 m/s 757 mmHg 32%
    17:00 +13°C° 0 mm 2 m/s 756 mmHg 33%
    18:00 +13°C° 0 mm 2 m/s 756 mmHg 35%
    19:00 +10°C° 0 mm 2 m/s 757 mmHg 38%
    20:00 +10°C° 0 mm 1 m/s 757 mmHg 42%
    21:00 +9°C° 0 mm 1 m/s 757 mmHg 45%
    22:00 +8°C° 0 mm 1 m/s 757 mmHg 47%
    23:00 +8°C° 0 mm 1 m/s 757 mmHg 48%

    Demain, 21 Avril, Dimanche

    Heure Température Précipitation Vent Pression Humidité
    00:00 +7°C° 0 mm 1 m/s 757 mmHg 50%
    01:00 +7°C° 0 mm 1 m/s 757 mmHg 51%
    02:00 +6°C° 0 mm 1 m/s 757 mmHg 52%
    03:00 +6°C° 0 mm 1 m/s 757 mmHg 54%
    04:00 +6°C° 0 mm 1 m/s 757 mmHg 55%
    05:00 +6°C° 0 mm 1 m/s 757 mmHg 56%
    06:00 +5°C° 0 mm 1 m/s 757 mmHg 57%
    07:00 +8°C° 0 mm 1 m/s 757 mmHg 52%
    08:00 +9°C° 0 mm 2 m/s 758 mmHg 47%
    09:00 +12°C° 0 mm 2 m/s 758 mmHg 42%
    10:00 +12°C° 0 mm 3 m/s 758 mmHg 39%
    11:00 +13°C° 0 mm 3 m/s 758 mmHg 35%
    12:00 +13°C° 0 mm 3 m/s 758 mmHg 32%
    13:00 +13°C° 0 mm 3 m/s 757 mmHg 33%
    14:00 +13°C° 0 mm 3 m/s 757 mmHg 33%
    15:00 +13°C° 0 mm 3 m/s 757 mmHg 34%
    16:00 +13°C° 0 mm 3 m/s 757 mmHg 37%
    17:00 +13°C° 0 mm 3 m/s 757 mmHg 39%
    18:00 +13°C° 0 mm 3 m/s 757 mmHg 42%
    19:00 +11°C° 0 mm 3 m/s 757 mmHg 45%
    20:00 +10°C° 0 mm 2 m/s 757 mmHg 48%
    21:00 +9°C° 0 mm 2 m/s 758 mmHg 52%
    22:00 +8°C° 0 mm 2 m/s 758 mmHg 53%
    23:00 +8°C° 0 mm 2 m/s 758 mmHg 54%

    Après-demain, 22 Avril, Lundi

    Heure Température Précipitation Vent Pression Humidité
    00:00 +8°C° 0 mm 2 m/s 758 mmHg 55%
    01:00 +8°C° 0 mm 2 m/s 758 mmHg 55%
    02:00 +8°C° 0 mm 2 m/s 758 mmHg 56%
    03:00 +8°C° 0 mm 2 m/s 758 mmHg 56%
    04:00 +8°C° 0 mm 2 m/s 758 mmHg 57%
    05:00 +8°C° 0 mm 2 m/s 758 mmHg 59%
    06:00 +8°C° 0 mm 2 m/s 758 mmHg 60%
    07:00 +9°C° 0 mm 2 m/s 759 mmHg 55%
    08:00 +10°C° 0 mm 2 m/s 759 mmHg 51%
    09:00 +12°C° 0 mm 3 m/s 759 mmHg 46%
    10:00 +12°C° 0 mm 3 m/s 759 mmHg 43%
    11:00 +13°C° 0 mm 3 m/s 759 mmHg 40%
    12:00 +13°C° 0 mm 3 m/s 759 mmHg 38%
    13:00 +13°C° 0 mm 3 m/s 759 mmHg 39%
    14:00 +14°C° 0 mm 3 m/s 759 mmHg 39%
    15:00 +14°C° 0 mm 3 m/s 759 mmHg 40%
    16:00 +14°C° 0 mm 2 m/s 759 mmHg 43%
    17:00 +14°C° 0 mm 2 m/s 758 mmHg 47%
    18:00 +14°C° 0 mm 2 m/s 758 mmHg 50%
    19:00 +13°C° 0 mm 2 m/s 759 mmHg 53%
    20:00 +10°C° 0 mm 2 m/s 759 mmHg 57%
    21:00 +9°C° 0 mm 2 m/s 759 mmHg 60%
    22:00 +10°C° 0 mm 1 m/s 759 mmHg 61%
    23:00 +9°C° 0 mm 1 m/s 760 mmHg 63%

    23 Avril, Mardi

    Heure Température Précipitation Vent Pression Humidité
    00:00 +9°C° 0 mm 1 m/s 760 mmHg 64%
    01:00 +9°C° 0 mm 1 m/s 760 mmHg 64%
    02:00 +9°C° 0 mm 1 m/s 760 mmHg 64%
    03:00 +9°C° 0 mm 1 m/s 760 mmHg 64%
    04:00 +9°C° 0 mm 1 m/s 760 mmHg 65%
    05:00 +9°C° 0 mm 1 m/s 760 mmHg 66%
    06:00 +9°C° 0 mm 1 m/s 760 mmHg 67%
    07:00 +10°C° 0 mm 1 m/s 761 mmHg 62%
    08:00 +12°C° 0 mm 1 m/s 761 mmHg 57%
    09:00 +13°C° 0 mm 1 m/s 761 mmHg 52%
    10:00 +14°C° 0 mm 2 m/s 761 mmHg 48%
    11:00 +14°C° 0 mm 2 m/s 761 mmHg 44%
    12:00 +15°C° 0 mm 2 m/s 761 mmHg 40%
    13:00 +15°C° 0 mm 2 m/s 761 mmHg 39%
    14:00 +15°C° 0 mm 1 m/s 761 mmHg 39%
    15:00 +16°C° 0 mm 1 m/s 761 mmHg 39%
    16:00 +15°C° 0 mm 1 m/s 761 mmHg 41%
    17:00 +15°C° 0 mm 1 m/s 761 mmHg 44%
    18:00 +15°C° 0 mm 1 m/s 761 mmHg 47%
    19:00 +13°C° 0 mm 0 m/s 761 mmHg 49%
    20:00 +11°C° 0 mm 0 m/s 761 mmHg 52%
    21:00 +10°C° 0 mm 0 m/s 761 mmHg 55%
    22:00 +9°C° 0 mm 0 m/s 761 mmHg 56%
    23:00 +9°C° 0 mm 0 m/s 762 mmHg 58%

    24 Avril, Mercredi

    Heure Température Précipitation Vent Pression Humidité
    00:00 +9°C° 0 mm 0 m/s 762 mmHg 59%
    01:00 +8°C° 0 mm 0 m/s 762 mmHg 61%
    02:00 +9°C° 0 mm 1 m/s 762 mmHg 62%
    03:00 +9°C° 0 mm 1 m/s 762 mmHg 64%
    04:00 +8°C° 0 mm 1 m/s 762 mmHg 65%
    05:00 +8°C° 0 mm 1 m/s 762 mmHg 67%
    06:00 +8°C° 0 mm 1 m/s 762 mmHg 69%
    07:00 +10°C° 0 mm 1 m/s 763 mmHg 62%
    08:00 +12°C° 0 mm 2 m/s 763 mmHg 56%
    09:00 +14°C° 0 mm 2 m/s 763 mmHg 50%
    10:00 +15°C° 0 mm 2 m/s 763 mmHg 46%
    11:00 +17°C° 0 mm 2 m/s 762 mmHg 41%
    12:00 +18°C° 0 mm 2 m/s 762 mmHg 37%
    13:00 +18°C° 0 mm 2 m/s 762 mmHg 36%
    14:00 +18°C° 0 mm 2 m/s 762 mmHg 36%
    15:00 +19°C° 0 mm 2 m/s 761 mmHg 35%
    16:00 +19°C° 0 mm 2 m/s 761 mmHg 38%
    17:00 +20°C° 0 mm 1 m/s 761 mmHg 41%
    18:00 +19°C° 0 mm 1 m/s 761 mmHg 45%
    19:00 +18°C° 0 mm 1 m/s 761 mmHg 48%
    20:00 +16°C° 0 mm 1 m/s 761 mmHg 51%
    21:00 +14°C° 0 mm 1 m/s 761 mmHg 54%
    22:00 +14°C° 0 mm 2 m/s 761 mmHg 57%
    23:00 +13°C° 0 mm 2 m/s 761 mmHg 60%

    25 Avril, Jeudi

    Heure Température Précipitation Vent Pression Humidité
    00:00 +12°C° 0 mm 2 m/s 761 mmHg 63%
    01:00 +12°C° 0 mm 2 m/s 762 mmHg 65%
    02:00 +12°C° 0 mm 2 m/s 762 mmHg 67%
    03:00 +10°C° 0 mm 2 m/s 762 mmHg 68%
    04:00 +10°C° 0 mm 2 m/s 762 mmHg 70%
    05:00 +10°C° 0 mm 2 m/s 762 mmHg 71%
    06:00 +10°C° 0 mm 2 m/s 762 mmHg 72%
    07:00 +13°C° 0 mm 2 m/s 762 mmHg 66%
    08:00 +14°C° 0 mm 3 m/s 762 mmHg 61%
    09:00 +17°C° 0 mm 3 m/s 762 mmHg 55%
    10:00 +19°C° 0 mm 3 m/s 762 mmHg 50%
    11:00 +20°C° 0 mm 3 m/s 762 mmHg 45%
    12:00 +22°C° 0 mm 3 m/s 761 mmHg 40%
    13:00 +22°C° 0 mm 3 m/s 761 mmHg 39%
    14:00 +22°C° 0 mm 3 m/s 761 mmHg 38%
    15:00 +24°C° 0 mm 3 m/s 761 mmHg 37%
    16:00 +23°C° 0 mm 2 m/s 760 mmHg 41%
    17:00 +23°C° 0 mm 2 m/s 760 mmHg 44%
    18:00 +23°C° 0 mm 2 m/s 760 mmHg 48%
    19:00 +20°C° 0 mm 2 m/s 760 mmHg 52%
    20:00 +18°C° 0 mm 2 m/s 760 mmHg 56%
    21:00 +17°C° 0 mm 2 m/s 760 mmHg 60%
    22:00 +16°C° 0 mm 2 m/s 760 mmHg 62%
    23:00 +15°C° 0 mm 2 m/s 760 mmHg 64%
    Voir plus